User: anonymous   Login
Location: Hoyos del Collado
(40.3594°N, 5.2003°W)
Time: 22:27:13
(UTC+00:00)
Language:

Atlas Centaur 2 - Orbit

View from above orbital plane
View from above orbital plane
View from above satellite
View from above satellite

Ground track
Ground track

The orbit data is extracted from the following two-line orbital elements,

1 00694U 63047A   24168.95499039  .00003063  00000-0  37430-3 0  9990
2 00694  30.3578 110.2007 0565733 297.8631  56.5768 14.07582848 42520
Epoch (UTC): 16 June 2024 22:55:11
Eccentricity: 0.0565733
inclination: 30.3578°
perigee height: 458 km
apogee height: 1277 km
right ascension of ascending node: 110.2007°
argument of perigee: 297.8631°
revolutions per day: 14.07582848
mean anomaly at epoch: 56.5768°
orbit number at epoch: 4252

The dashed part of the orbit path shows where the satellite is in the earth's shadow,  

DLR